Location: Enikep?du
(16.5133°N, 80.7066°E)
Time: 09:57:08
(UTC+00:00)

CZ-4C R/B - Pass Details

Date: 15 May 2026
Orbit: 474 x 1502 km, 63.4° (Epoch: 5 June)

Event Time Altitude Azimuth Distance (km) Brightness Sun altitude
Rises 23:00:39 0° 335° (NNW) 4,184 5.8 -15.3°
Reaches altitude 10° 23:03:17 10° 336° (NNW) 3,328 5.3 -14.8°
Maximum altitude 23:11:47 88° 67° (ENE) 1,463 3.4 -12.9°
Drops below altitude 10° 23:21:08 10° 156° (SSE) 3,642 5.5 -10.9°
Sets 23:24:07 0° 156° (SSE) 4,593 6.0 -10.2°
